Location: Helsinki
(60.1699°N, 24.9384°E)
Time: 23:51:29
(UTC+02:00)

Altair - Pass Details

Date: 02 November 2020
Orbit: 1502 x 1682 km, 47.2° (Epoch: 25 November)

Event Time Altitude Azimuth Distance (km) Brightness Sun altitude
Rises 05:53:12 0° 236° (SW) 4,653 - -14.2°
Exits shadow 05:54:34 - 233° (SW) 4,241 9.4 -14.0°
Reaches altitude 10° 05:56:30 10° 228° (SW) 3,688 9.1 -13.8°
Maximum altitude 06:04:37 36° 167° (SSE) 2,298 8.6 -12.8°
Drops below altitude 10° 06:12:59 10° 106° (ESE) 3,806 11.1 -11.7°
Sets 06:16:26 0° 99° (E) 4,819 12.4 -11.3°
